QPF
0.00 0.00 0.00 0.00 0.00 0.00 0.00 0.00 0.00 0.00 0.00 0.00 0.00 0.00 0.00 0.00 0.00 0.00 0.00 0.00 0.00 0.00 0.00 0.00 0.00 0.00 0.00 0.00 0.00 0.00 0.00 0.00 0.00 0.00 0.00 0.00 0.00 0.00 0.00 0.00 0.00 0.00 0.00 0.00 0.00 0.00 0.00 0.00 0.00 0.00 0.00 0.00 0.00 0.00 0.00 0.00 0.00 0.00 0.00 0.00 0.00 0.00 0.00
0.00 0.00 0.00 0.00 0.00 0.00 0.00 0.00 0.00 0.00 0.00 0.00 0.00 0.00 0.00 0.00 0.00 0.00 0.00 0.00 0.00 0.00 0.00 0.00 0.00 0.00 0.00 0.00 0.00 0.00 0.00 0.00 0.00 0.00 0.00 0.00 0.00 0.00 0.00 0.00 0.00 0.00 0.00 0.00 0.00 0.00 0.00 0.00 0.00 0.00 0.00 0.00 0.00 0.00 0.00 0.00 0.00 0.00 0.00 0.00 0.00 0.00 0.00
0.00 0.00 0.00 0.00 0.00 0.00 0.00 0.00 0.00 0.00 0.00 0.00 0.00 0.00 0.00 0.00 0.00 0.00 0.00 0.00 0.00 0.00 0.00 0.00 0.00 0.00 0.00 0.00 0.00 0.00 0.00 0.00 0.00 0.00 0.00 0.00 0.00 0.00 0.00 0.00 0.00 0.00 0.00 0.00 0.00 0.00 0.00 0.00 0.00 0.00 0.00 0.00 0.00 0.00 0.00 0.00 0.00 0.00 0.00 0.00 0.00 0.00 0.00
0.00 0.00 0.00 0.00 0.00 0.00 0.00 0.00 0.00 0.00 0.00 0.00 0.00 0.00 0.00 0.00 0.00 0.00 0.00 0.00 0.00 0.00 0.00 0.00 0.00 0.00 0.00 0.00 0.00 0.00 0.00 0.00 0.00 0.00 0.00 0.00 0.00 0.00 0.00 0.00 0.00 0.00 0.00 0.00 0.00 0.00 0.00 0.00 0.00 0.00 0.00 0.00 0.00 0.00 0.00 0.00 0.00 0.00 0.00 0.00 0.00 0.00 0.00
0.00 0.00 0.00 0.00 0.00 0.00 0.00 0.00 0.00 0.00 0.00 0.00 0.00 0.00 0.00 0.00 0.00 0.00 0.00 0.00 0.00 0.00 0.00 0.00 0.00 0.00 0.00 0.00 0.00 0.00 0.00 0.00 0.00 0.00 0.00 0.00 0.00 0.00 0.00 0.00 0.00 0.00 0.00 0.00 0.00 0.00 0.00 0.00 0.00 0.00 0.00 0.00 0.00 0.00 0.00 0.00 0.00 0.00 0.00 0.00 0.00 0.00 0.00
0.00 0.00 0.00 0.00 0.00 0.00 0.00 0.00 0.00 0.00 0.00 0.00 0.00 0.00 0.00 0.00 0.00 0.00 0.00 0.00 0.00 0.00 0.00 0.00 0.00 0.00 0.00 0.00 0.00 0.00 0.00 0.00 0.00 0.00 0.00 0.00 0.00 0.00 0.00 0.00 0.00 0.00 0.00 0.00 0.00 0.00 0.00 0.00 0.00 0.00 0.00 0.00 0.00 0.00 0.00 0.00 0.00 0.00 0.00 0.00 0.00 0.00 0.00
0.00 0.00 0.00 0.00 0.00 0.00 0.00 0.00 0.00 0.00 0.00 0.00 0.00 0.00 0.00 0.00 0.00 0.00 0.00 0.00 0.00 0.00 0.00 0.00 0.00 0.00 0.00 0.00 0.00 0.00 0.00 0.00 0.00 0.00 0.00 0.00 0.00 0.00 0.00 0.00 0.00 0.00 0.00 0.00 0.00 0.00 0.00 0.00 0.00 0.00 0.00 0.00 0.00 0.00 0.00 0.00 0.00 0.00 0.00 0.00 0.00 0.00 0.00
0.00 0.00 0.00 0.00 0.00 0.00 0.00 0.00 0.00 0.00 0.00 0.00 0.00 0.00 0.00 0.00 0.00 0.00 0.00 0.00 0.00 0.00 0.00 0.00 0.00 0.00 0.00 0.00 0.00 0.00 0.00 0.00 0.00 0.00 0.00 0.00 0.00 0.00 0.00 0.00 0.00 0.00 0.00 0.00 0.00 0.00 0.00 0.00 0.00 0.00 0.00 0.00 0.00 0.00 0.00 0.00 0.00 0.00 0.00 0.00 0.00 0.00 0.00
0.00 0.00 0.00 0.00 0.00 0.00 0.00 0.00 0.00 0.00 0.00 0.00 0.00 0.00 0.00 0.00 0.00 0.00 0.00 0.00 0.00 0.00 0.00 0.00 0.00 0.00 0.00 0.00 0.00 0.00 0.00 0.00 0.00 0.00 0.00 0.00 0.00 0.00 0.00 0.00 0.00 0.00 0.00 0.00 0.00 0.00 0.00 0.00 0.00 0.00 0.00 0.00 0.00 0.00 0.00 0.00 0.00 0.00 0.00 0.00 0.00 0.00 0.00
0.00 0.00 0.00 0.00 0.00 0.00 0.00 0.00 0.00 0.00 0.00 0.00 0.00 0.00 0.00 0.00 0.00 0.00 0.00 0.00 0.00 0.00 0.00 0.00 0.00 0.00 0.00 0.00 0.00 0.00 0.00 0.00 0.00 0.00 0.00 0.00 0.00 0.00 0.00 0.00 0.00 0.00 0.00 0.00 0.00 0.00 0.00 0.00 0.00 0.00 0.00 0.00 0.00 0.00 0.00 0.00 0.00 0.00 0.00 0.00 0.00 0.00 0.00
0.00 0.00 0.00 0.00 0.00 0.00 0.00 0.00 0.00 0.00 0.00 0.00 0.00 0.00 0.00 0.00 0.00 0.00 0.00 0.00 0.00 0.00 0.00 0.00 0.00 0.00 0.00 0.00 0.00 0.00 0.00 0.00 0.00 0.00 0.00 0.00 0.00 0.00 0.00 0.00 0.00 0.00 0.00 0.00 0.00 0.00 0.00 0.00 0.00 0.00 0.00 0.00 0.00 0.00 0.00 0.00 0.00 0.00 0.00 0.00 0.00 0.00 0.00
0.00 0.00 0.00 0.00 0.00 0.00 0.00 0.00 0.00 0.00 0.00 0.00 0.00 0.00 0.00 0.00 0.00 0.00 0.00 0.00 0.00 0.00 0.00 0.00 0.00 0.00 0.00 0.00 0.00 0.00 0.00 0.00 0.00 0.00 0.00 0.00 0.00 0.00 0.00 0.00 0.00 0.00 0.00 0.00 0.00 0.00 0.00 0.00 0.00 0.00 0.00 0.00 0.00 0.00 0.00 0.00 0.00 0.00 0.00 0.00 0.00 0.00 0.00
0.00 0.00 0.00 0.00 0.00 0.00 0.00 0.00 0.00 0.00 0.00 0.00 0.00 0.00 0.00 0.00 0.00 0.00 0.00 0.00 0.00 0.00 0.00 0.00 0.00 0.00 0.00 0.00 0.00 0.00 0.00 0.00 0.00 0.00 0.00 0.00 0.00 0.00 0.00 0.00 0.00 0.00 0.00 0.00 0.00 0.00 0.00 0.00 0.00 0.00 0.00 0.00 0.00 0.00 0.00 0.00 0.00 0.00 0.00 0.00 0.00 0.00 0.00
0.00 0.00 0.00 0.00 0.00 0.00 0.00 0.00 0.00 0.00 0.00 0.00 0.00 0.00 0.00 0.00 0.00 0.00 0.00 0.00 0.00 0.00 0.00 0.00 0.00 0.00 0.00 0.00 0.00 0.00 0.00 0.00 0.00 0.00 0.00 0.00 0.00 0.00 0.00 0.00 0.00 0.00 0.00 0.00 0.00 0.00 0.00 0.00 0.00 0.00 0.00 0.00 0.00 0.00 0.00 0.00 0.00 0.00 0.00 0.00 0.00 0.00 0.00
0.00 0.00 0.00 0.00 0.00 0.00 0.00 0.00 0.00 0.00 0.00 0.00 0.00 0.00 0.00 0.00 0.00 0.00 0.00 0.00 0.00 0.00 0.00 0.00 0.00 0.00 0.00 0.00 0.00 0.00 0.00 0.00 0.00 0.00 0.00 0.00 0.00 0.00 0.00 0.00 0.00 0.00 0.00 0.00 0.00 0.00 0.00 0.00 0.00 0.00 0.00 0.00 0.00 0.00 0.00 0.00 0.00 0.00 0.00 0.00 0.00 0.00 0.00
0.00 0.00 0.00 0.00 0.00 0.00 0.00 0.00 0.00 0.00 0.00 0.00 0.00 0.00 0.00 0.00 0.00 0.00 0.00 0.00 0.00 0.00 0.00 0.00 0.00 0.00 0.00 0.00 0.00 0.00 0.00 0.00 0.00 0.00 0.00 0.00 0.00 0.00 0.00 0.00 0.00 0.00 0.00 0.00 0.00 0.00 0.00 0.00 0.00 0.00 0.00 0.00 0.00 0.00 0.00 0.00 0.00 0.00 0.00 0.00 0.00 0.00 0.00
0.00 0.00 0.00 0.00 0.00 0.00 0.00 0.00 0.00 0.00 0.00 0.00 0.00 0.00 0.00 0.00 0.00 0.00 0.00 0.00 0.00 0.00 0.00 0.00 0.00 0.00 0.00 0.00 0.00 0.00 0.00 0.00 0.00 0.00 0.00 0.00 0.00 0.00 0.00 0.00 0.00 0.00 0.00 0.00 0.00 0.00 0.00 0.00 0.00 0.00 0.00 0.00 0.00 0.00 0.00 0.00 0.00 0.00 0.00 0.01 0.00 0.00 0.00
0.00 0.00 0.00 0.00 0.00 0.00 0.00 0.00 0.00 0.00 0.00 0.00 0.00 0.00 0.00 0.00 0.00 0.00 0.00 0.00 0.00 0.00 0.00 0.00 0.00 0.00 0.00 0.00 0.00 0.00 0.00 0.00 0.00 0.00 0.00 0.00 0.00 0.00 0.00 0.00 0.00 0.00 0.00 0.00 0.00 0.00 0.00 0.00 0.00 0.00 0.00 0.00 0.00 0.00 0.00 0.00 0.00 0.00 0.00 0.00 0.00 0.00 0.00
0.00 0.00 0.00 0.00 0.00 0.00 0.00 0.00 0.00 0.00 0.00 0.00 0.00 0.00 0.00 0.00 0.00 0.00 0.00 0.00 0.00 0.00 0.00 0.00 0.00 0.00 0.00 0.00 0.00 0.00 0.00 0.00 0.00 0.00 0.00 0.00 0.00 0.00 0.00 0.00 0.00 0.00 0.00 0.00 0.00 0.00 0.00 0.00 0.00 0.00 0.00 0.00 0.00 0.00 0.00 0.00 0.00 0.00 0.00 0.00 0.00 0.00 0.00
0.00 0.00 0.00 0.00 0.00 0.00 0.00 0.00 0.00 0.00 0.00 0.00 0.00 0.00 0.00 0.00 0.00 0.00 0.00 0.00 0.00 0.00 0.00 0.00 0.00 0.00 0.00 0.00 0.00 0.00 0.00 0.00 0.00 0.00 0.00 0.00 0.00 0.00 0.00 0.00 0.00 0.00 0.00 0.00 0.00 0.00 0.00 0.00 0.00 0.00 0.00 0.00 0.00 0.00 0.00 0.00 0.00 0.00 0.00 0.00 0.00 0.00 0.00
0.00 0.00 0.00 0.00 0.00 0.00 0.00 0.00 0.00 0.00 0.00 0.00 0.00 0.00 0.00 0.00 0.00 0.00 0.00 0.00 0.00 0.00 0.00 0.00 0.00 0.00 0.00 0.00 0.00 0.00 0.00 0.00 0.00 0.00 0.00 0.00 0.00 0.00 0.00 0.00 0.00 0.00 0.00 0.00 0.00 0.00 0.00 0.00 0.00 0.00 0.00 0.00 0.00 0.00 0.00 0.00 0.00 0.00 0.00 0.00 0.00 0.00 0.00
0.00 0.00 0.00 0.00 0.00 0.00 0.00 0.00 0.00 0.00 0.00 0.00 0.00 0.00 0.00 0.00 0.00 0.00 0.00 0.00 0.00 0.00 0.00 0.00 0.00 0.00 0.00 0.00 0.00 0.00 0.00 0.00 0.00 0.00 0.00 0.00 0.00 0.00 0.00 0.00 0.00 0.00 0.00 0.00 0.00 0.00 0.00 0.00 0.00 0.00 0.00 0.00 0.00 0.00 0.00 0.00 0.00 0.00 0.00 0.00 0.00 0.00 0.00
0.00 0.00 0.00 0.00 0.00 0.00 0.00 0.00 0.00 0.00 0.00 0.00 0.00 0.00 0.00 0.00 0.00 0.00 0.00 0.00 0.00 0.00 0.00 0.00 0.00 0.00 0.00 0.00 0.00 0.00 0.00 0.00 0.00 0.00 0.00 0.00 0.00 0.00 0.00 0.00 0.00 0.00 0.00 0.00 0.00 0.00 0.00 0.00 0.00 0.00 0.00 0.00 0.00 0.00 0.00 0.00 0.00 0.00 0.00 0.00 0.00 0.00 0.00
0.00 0.00 0.00 0.00 0.00 0.00 0.00 0.00 0.00 0.00 0.00 0.00 0.00 0.00 0.00 0.00 0.00 0.00 0.00 0.00 0.00 0.00 0.00 0.00 0.00 0.00 0.00 0.00 0.00 0.00 0.00 0.00 0.00 0.00 0.00 0.00 0.00 0.00 0.00 0.00 0.00 0.00 0.00 0.00 0.00 0.00 0.00 0.00 0.00 0.00 0.00 0.00 0.00 0.00 0.00 0.00 0.00 0.00 0.00 0.00 0.00 0.00 0.00
0.00 0.00 0.00 0.00 0.00 0.00 0.00 0.00 0.00 0.00 0.00 0.00 0.00 0.00 0.00 0.00 0.00 0.00 0.00 0.00 0.00 0.00 0.00 0.00 0.00 0.00 0.00 0.00 0.00 0.00 0.00 0.00 0.00 0.00 0.00 0.00 0.00 0.00 0.00 0.00 0.00 0.00 0.00 0.00 0.00 0.00 0.00 0.00 0.00 0.00 0.00 0.00 0.00 0.00 0.00 0.00 0.00 0.00 0.00 0.00 0.00 0.00 0.00
0.00 0.00 0.00 0.00 0.00 0.00 0.00 0.00 0.00 0.00 0.00 0.00 0.00 0.00 0.00 0.00 0.00 0.00 0.00 0.00 0.00 0.00 0.00 0.00 0.00 0.00 0.00 0.00 0.00 0.00 0.00 0.00 0.00 0.00 0.00 0.00 0.00 0.00 0.00 0.00 0.00 0.00 0.00 0.00 0.00 0.00 0.00 0.00 0.00 0.00 0.00 0.00 0.00 0.00 0.00 0.00 0.00 0.00 0.00 0.00 0.00 0.00 0.00
0.00 0.00 0.00 0.00 0.00 0.00 0.00 0.00 0.00 0.00 0.00 0.00 0.00 0.00 0.00 0.00 0.00 0.00 0.00 0.00 0.00 0.00 0.00 0.00 0.00 0.00 0.00 0.00 0.00 0.00 0.00 0.00 0.00 0.00 0.00 0.00 0.00 0.00 0.00 0.00 0.00 0.00 0.00 0.00 0.00 0.00 0.00 0.00 0.00 0.00 0.00 0.00 0.00 0.00 0.00 0.00 0.00 0.00 0.00 0.00 0.00 0.00 0.00
0.00 0.00 0.00 0.00 0.00 0.00 0.00 0.00 0.00 0.00 0.00 0.00 0.00 0.00 0.00 0.00 0.00 0.00 0.00 0.00 0.00 0.00 0.00 0.00 0.00 0.00 0.00 0.00 0.00 0.00 0.00 0.00 0.00 0.00 0.00 0.00 0.00 0.00 0.00 0.00 0.00 0.00 0.00 0.00 0.00 0.00 0.00 0.00 0.00 0.00 0.00 0.00 0.00 0.00 0.00 0.00 0.00 0.00 0.00 0.00 0.00 0.00 0.00
0.00 0.00 0.00 0.00 0.00 0.00 0.00 0.00 0.00 0.00 0.00 0.00 0.00 0.00 0.00 0.00 0.00 0.00 0.00 0.00 0.00 0.00 0.00 0.00 0.00 0.00 0.00 0.00 0.00 0.00 0.00 0.00 0.00 0.00 0.00 0.00 0.00 0.00 0.00 0.00 0.00 0.00 0.00 0.00 0.00 0.00 0.00 0.00 0.00 0.00 0.00 0.00 0.00 0.00 0.00 0.00 0.00 0.00 0.00 0.00 0.00 0.00 0.00
0.00 0.00 0.00 0.00 0.00 0.00 0.00 0.00 0.00 0.00 0.00 0.00 0.00 0.00 0.00 0.00 0.00 0.00 0.00 0.00 0.00 0.00 0.00 0.00 0.00 0.00 0.00 0.00 0.00 0.00 0.00 0.00 0.00 0.00 0.00 0.00 0.00 0.00 0.00 0.00 0.00 0.00 0.00 0.00 0.00 0.00 0.00 0.00 0.00 0.00 0.00 0.00 0.00 0.00 0.00 0.00 0.00 0.00 0.00 0.00 0.00 0.00 0.00
0.00 0.00 0.00 0.00 0.00 0.00 0.00 0.00 0.00 0.00 0.00 0.00 0.00 0.00 0.00 0.00 0.00 0.00 0.00 0.00 0.00 0.00 0.00 0.00 0.00 0.00 0.00 0.00 0.00 0.00 0.00 0.00 0.00 0.00 0.00 0.00 0.00 0.00 0.00 0.00 0.00 0.00 0.00 0.00 0.00 0.00 0.00 0.00 0.00 0.00 0.00 0.00 0.00 0.00 0.00 0.00 0.00 0.00 0.00 0.00 0.00 0.00 0.00
0.00 0.00 0.00 0.00 0.00 0.00 0.00 0.00 0.00 0.00 0.00 0.00 0.00 0.00 0.00 0.00 0.00 0.00 0.00 0.00 0.00 0.00 0.00 0.00 0.00 0.00 0.00 0.00 0.00 0.00 0.00 0.00 0.00 0.00 0.00 0.00 0.00 0.00 0.00 0.00 0.00 0.00 0.00 0.00 0.00 0.00 0.00 0.00 0.00 0.00 0.00 0.00 0.00 0.00 0.00 0.00 0.00 0.00 0.00 0.00 0.00 0.00 0.00
0.00 0.00 0.00 0.00 0.00 0.00 0.00 0.00 0.00 0.00 0.00 0.00 0.00 0.00 0.00 0.00 0.00 0.00 0.00 0.00 0.00 0.00 0.00 0.00 0.00 0.00 0.00 0.00 0.00 0.00 0.00 0.00 0.00 0.00 0.00 0.00 0.00 0.00 0.00 0.00 0.00 0.00 0.00 0.00 0.00 0.00 0.00 0.00 0.00 0.00 0.00 0.00 0.00 0.00 0.00 0.00 0.00 0.00 0.00 0.00 0.00 0.00 0.00
0.00 0.00 0.00 0.00 0.00 0.00 0.00 0.00 0.00 0.00 0.00 0.00 0.00 0.00 0.00 0.00 0.00 0.00 0.00 0.00 0.00 0.00 0.00 0.00 0.00 0.00 0.00 0.00 0.00 0.00 0.00 0.00 0.00 0.00 0.00 0.00 0.00 0.00 0.00 0.00 0.00 0.00 0.00 0.00 0.00 0.00 0.00 0.00 0.00 0.00 0.00 0.00 0.00 0.00 0.00 0.00 0.00 0.00 0.00 0.00 0.00 0.00 0.00
0.00 0.00 0.00 0.00 0.00 0.00 0.00 0.00 0.00 0.00 0.00 0.00 0.00 0.00 0.00 0.00 0.00 0.00 0.00 0.00 0.00 0.00 0.00 0.00 0.00 0.00 0.00 0.00 0.00 0.00 0.00 0.00 0.00 0.00 0.00 0.00 0.00 0.00 0.00 0.00 0.00 0.00 0.00 0.00 0.00 0.00 0.00 0.00 0.00 0.00 0.00 0.00 0.00 0.00 0.00 0.00 0.00 0.00 0.00 0.00 0.00 0.00 0.00
0.00 0.00 0.00 0.00 0.00 0.00 0.00 0.00 0.00 0.00 0.00 0.00 0.00 0.00 0.00 0.00 0.00 0.00 0.00 0.00 0.00 0.00 0.00 0.00 0.00 0.00 0.00 0.00 0.00 0.00 0.00 0.00 0.00 0.00 0.00 0.00 0.00 0.00 0.00 0.00 0.00 0.00 0.00 0.00 0.00 0.00 0.00 0.00 0.00 0.00 0.00 0.00 0.00 0.00 0.00 0.00 0.00 0.00 0.00 0.00 0.00 0.00 0.00
0.00 0.00 0.00 0.00 0.00 0.00 0.00 0.00 0.00 0.00 0.00 0.00 0.00 0.00 0.00 0.00 0.00 0.00 0.00 0.00 0.00 0.00 0.00 0.00 0.00 0.00 0.00 0.00 0.00 0.00 0.00 0.00 0.00 0.00 0.00 0.00 0.00 0.00 0.00 0.00 0.00 0.00 0.00 0.00 0.00 0.00 0.00 0.00 0.00 0.00 0.00 0.00 0.00 0.00 0.00 0.00 0.00 0.00 0.00 0.00 0.00 0.00 0.00
MSLP
1019.13 1019.45 1019.61 1019.81 1019.93 1020.09 1020.25 1020.45 1020.41 1020.41 1020.41 1020.37 1020.41 1020.41 1020.33 1020.29 1020.33 1020.49 1020.61 1020.73 1020.89 1021.01 1021.01 1021.09 1021.09 1021.01 1020.89 1020.93 1021.01 1021.13 1021.21 1021.29 1021.33 1021.53 1021.73 1021.69 1021.77 1021.81 1021.49 1021.41 1021.25 1021.05 1021.05 1021.09 1021.29 1021.41 1021.25 1020.69 1019.37 1019.05 1019.21 1019.29 1019.17 1019.21 1019.13 1018.97 1018.69 1018.37 1018.09 1017.77 1017.49 1017.21 1017.09
1018.97 1019.21 1019.41 1019.73 1020.09 1020.29 1020.49 1020.65 1020.61 1020.73 1020.73 1020.69 1020.65 1020.65 1020.65 1020.69 1020.77 1020.93 1021.01 1021.13 1021.21 1021.25 1021.21 1021.21 1021.17 1021.13 1021.21 1021.29 1021.41 1021.49 1021.65 1021.69 1021.69 1021.81 1021.93 1022.21 1022.17 1022.29 1021.97 1021.85 1021.73 1021.65 1021.53 1021.53 1021.57 1021.41 1021.49 1021.57 1020.93 1020.53 1019.81 1019.17 1019.45 1019.45 1019.33 1019.29 1019.05 1018.61 1018.33 1018.09 1017.81 1017.49 1017.49
1019.05 1019.29 1019.53 1019.97 1020.25 1020.37 1020.65 1020.93 1021.01 1021.05 1021.09 1021.05 1021.01 1021.01 1021.05 1021.17 1021.25 1021.33 1021.41 1021.45 1021.49 1021.41 1021.41 1021.41 1021.33 1021.37 1021.49 1021.61 1021.81 1021.89 1021.93 1021.97 1022.05 1022.05 1022.21 1022.37 1022.37 1022.41 1022.37 1022.37 1022.41 1022.29 1022.13 1022.17 1022.13 1022.13 1021.81 1021.81 1022.25 1021.53 1021.13 1020.73 1020.09 1019.61 1019.61 1019.57 1019.29 1018.89 1018.53 1018.25 1018.05 1017.81 1017.73
1019.17 1019.41 1019.85 1020.25 1020.41 1020.69 1021.01 1021.29 1021.33 1021.41 1021.37 1021.37 1021.37 1021.45 1021.53 1021.61 1021.65 1021.65 1021.69 1021.69 1021.65 1021.65 1021.65 1021.61 1021.65 1021.77 1021.89 1022.01 1022.13 1022.17 1022.25 1022.29 1022.37 1022.33 1022.37 1022.45 1022.53 1022.57 1022.65 1022.69 1022.81 1022.89 1023.01 1023.13 1023.13 1022.85 1022.81 1022.81 1022.53 1022.13 1021.89 1021.29 1021.01 1020.17 1019.69 1019.93 1019.65 1019.25 1018.89 1018.57 1018.33 1018.17 1018.05
1019.09 1019.41 1019.81 1020.29 1020.73 1021.09 1021.33 1021.49 1021.57 1021.53 1021.57 1021.61 1021.73 1021.85 1021.97 1021.93 1021.93 1021.97 1021.93 1021.93 1021.93 1021.93 1021.97 1021.97 1022.01 1022.09 1022.25 1022.33 1022.45 1022.49 1022.57 1022.57 1022.57 1022.57 1022.65 1022.73 1022.77 1022.89 1023.05 1023.13 1023.21 1023.25 1023.33 1023.45 1023.45 1023.41 1023.45 1023.37 1023.25 1023.13 1022.69 1021.97 1021.13 1020.93 1020.37 1020.05 1019.81 1019.69 1019.25 1019.05 1018.85 1018.69 1018.49
1019.29 1019.53 1019.85 1020.33 1020.81 1021.13 1021.37 1021.53 1021.57 1021.65 1021.77 1021.89 1022.09 1022.17 1022.29 1022.21 1022.21 1022.21 1022.29 1022.33 1022.29 1022.29 1022.29 1022.25 1022.37 1022.45 1022.57 1022.65 1022.73 1022.73 1022.77 1022.81 1022.89 1022.89 1023.01 1023.21 1023.25 1023.41 1023.61 1023.61 1023.65 1023.73 1023.85 1023.77 1023.69 1023.77 1023.69 1023.57 1023.57 1023.65 1023.17 1022.73 1022.53 1021.53 1020.89 1020.65 1020.25 1019.97 1019.49 1019.53 1019.25 1019.09 1018.89
1019.57 1019.69 1020.01 1020.37 1020.85 1021.09 1021.25 1021.41 1021.57 1021.73 1021.93 1022.17 1022.25 1022.37 1022.41 1022.41 1022.53 1022.61 1022.61 1022.61 1022.61 1022.57 1022.57 1022.65 1022.73 1022.85 1022.85 1022.93 1022.93 1023.01 1023.09 1023.17 1023.17 1023.29 1023.45 1023.61 1023.77 1023.93 1023.97 1024.13 1024.21 1024.25 1024.29 1024.17 1024.13 1024.05 1024.05 1023.93 1023.97 1023.97 1023.73 1023.17 1022.73 1022.17 1021.37 1021.01 1020.69 1020.49 1019.85 1019.85 1019.61 1019.37 1019.17
1019.73 1019.93 1020.25 1020.49 1020.77 1021.01 1021.25 1021.41 1021.65 1021.77 1021.93 1022.21 1022.29 1022.49 1022.57 1022.69 1022.81 1022.81 1022.85 1022.85 1022.89 1022.89 1022.93 1022.97 1023.05 1023.13 1023.17 1023.17 1023.25 1023.33 1023.37 1023.49 1023.65 1023.73 1023.97 1024.09 1024.33 1024.49 1024.53 1024.61 1024.65 1024.69 1024.69 1024.61 1024.53 1024.49 1024.33 1024.33 1024.25 1024.13 1024.05 1023.89 1022.89 1022.33 1022.01 1021.41 1021.17 1021.05 1020.69 1020.01 1019.85 1019.53 1019.45
1019.93 1020.13 1020.41 1020.65 1020.81 1020.93 1021.21 1021.41 1021.69 1021.77 1021.97 1022.25 1022.53 1022.65 1022.85 1022.93 1023.09 1023.13 1023.13 1023.21 1023.21 1023.21 1023.25 1023.29 1023.37 1023.45 1023.49 1023.49 1023.61 1023.65 1023.77 1023.85 1024.01 1024.13 1024.41 1024.49 1024.77 1024.93 1025.01 1025.05 1025.01 1025.17 1025.09 1025.01 1024.85 1024.77 1024.65 1024.57 1024.41 1024.29 1024.17 1024.17 1024.21 1023.45 1022.17 1021.65 1021.41 1021.29 1020.73 1020.33 1019.85 1019.77 1019.65
1020.29 1020.45 1020.61 1020.77 1020.89 1021.09 1021.21 1021.41 1021.61 1021.89 1022.17 1022.49 1022.77 1022.97 1023.17 1023.29 1023.37 1023.45 1023.53 1023.57 1023.61 1023.61 1023.61 1023.65 1023.69 1023.77 1023.81 1023.89 1023.97 1024.01 1024.13 1024.17 1024.25 1024.57 1024.77 1025.01 1025.25 1025.29 1025.37 1025.41 1025.45 1025.45 1025.41 1025.25 1025.09 1024.97 1024.89 1024.77 1024.65 1024.53 1024.37 1024.41 1024.25 1024.37 1024.09 1023.25 1021.93 1021.85 1020.73 1020.97 1020.73 1019.69 1019.89
1020.53 1020.65 1020.73 1020.85 1021.01 1021.17 1021.37 1021.49 1021.73 1022.09 1022.53 1022.81 1023.01 1023.29 1023.49 1023.69 1023.77 1023.81 1023.89 1023.97 1024.01 1024.01 1024.09 1024.09 1024.09 1024.09 1024.09 1024.17 1024.25 1024.29 1024.41 1024.41 1024.65 1024.89 1025.17 1025.37 1025.57 1025.61 1025.69 1025.73 1025.73 1025.69 1025.57 1025.45 1025.29 1025.17 1025.05 1024.93 1024.85 1024.73 1024.65 1024.53 1024.33 1024.49 1024.41 1024.45 1023.25 1022.21 1021.77 1021.05 1021.17 1020.41 1019.61
1020.73 1020.77 1020.89 1020.97 1021.09 1021.21 1021.41 1021.69 1022.09 1022.57 1022.85 1023.13 1023.41 1023.69 1023.89 1024.05 1024.17 1024.25 1024.25 1024.37 1024.45 1024.53 1024.53 1024.57 1024.49 1024.41 1024.29 1024.33 1024.37 1024.53 1024.61 1024.73 1025.01 1025.33 1025.53 1025.61 1025.85 1025.89 1025.97 1025.97 1025.93 1025.85 1025.73 1025.61 1025.45 1025.33 1025.21 1025.05 1024.97 1024.97 1024.85 1024.73 1024.57 1024.37 1024.45 1024.29 1024.29 1022.45 1022.57 1021.97 1020.97 1020.85 1020.21
1020.81 1020.89 1021.01 1021.13 1021.25 1021.33 1021.65 1022.09 1022.49 1022.77 1023.21 1023.49 1023.81 1024.05 1024.29 1024.41 1024.49 1024.53 1024.65 1024.77 1024.89 1024.97 1024.97 1024.93 1024.77 1024.69 1024.57 1024.57 1024.61 1024.73 1024.89 1025.01 1025.33 1025.65 1025.85 1025.93 1026.01 1026.13 1026.13 1026.09 1026.09 1026.01 1025.89 1025.77 1025.65 1025.53 1025.49 1025.33 1025.21 1025.17 1025.05 1024.93 1024.73 1024.57 1024.53 1024.49 1024.45 1023.61 1022.69 1022.37 1021.45 1020.65 1020.21
1020.97 1021.13 1021.25 1021.33 1021.45 1021.73 1022.05 1022.41 1022.77 1023.17 1023.49 1023.93 1024.13 1024.41 1024.57 1024.73 1024.77 1024.89 1025.01 1025.17 1025.25 1025.29 1025.21 1025.13 1025.05 1024.89 1024.85 1024.81 1024.85 1024.89 1025.09 1025.33 1025.65 1025.93 1026.05 1026.21 1026.25 1026.25 1026.29 1026.29 1026.21 1026.13 1026.05 1025.97 1025.93 1025.85 1025.73 1025.61 1025.49 1025.33 1025.13 1024.97 1024.85 1024.73 1024.53 1024.29 1024.01 1023.45 1022.45 1022.01 1021.61 1020.81 1020.09
1021.17 1021.33 1021.41 1021.61 1021.81 1022.09 1022.41 1022.81 1023.17 1023.49 1023.93 1024.33 1024.41 1024.69 1024.85 1025.01 1025.13 1025.17 1025.29 1025.45 1025.49 1025.45 1025.37 1025.33 1025.29 1025.17 1025.13 1025.09 1025.09 1025.21 1025.41 1025.65 1025.93 1026.17 1026.29 1026.41 1026.45 1026.45 1026.45 1026.41 1026.33 1026.25 1026.25 1026.25 1026.17 1026.09 1026.01 1025.85 1025.69 1025.49 1025.29 1025.05 1024.89 1024.61 1024.25 1024.17 1023.97 1023.61 1022.89 1021.93 1021.41 1020.77 1020.17
1021.37 1021.53 1021.77 1021.97 1022.13 1022.41 1022.77 1023.13 1023.41 1023.81 1024.29 1024.61 1024.77 1024.93 1025.13 1025.25 1025.33 1025.37 1025.45 1025.57 1025.57 1025.57 1025.57 1025.57 1025.57 1025.45 1025.49 1025.45 1025.41 1025.49 1025.65 1025.85 1026.09 1026.29 1026.41 1026.53 1026.57 1026.57 1026.53 1026.53 1026.53 1026.49 1026.45 1026.37 1026.33 1026.25 1026.13 1026.01 1025.81 1025.61 1025.29 1024.97 1024.81 1024.57 1024.29 1024.09 1023.97 1023.65 1023.05 1022.29 1021.49 1020.85 1020.21
1021.57 1021.85 1022.01 1022.21 1022.41 1022.73 1023.05 1023.41 1023.69 1024.09 1024.53 1024.77 1025.05 1025.29 1025.37 1025.45 1025.45 1025.49 1025.53 1025.65 1025.73 1025.81 1025.77 1025.77 1025.77 1025.77 1025.77 1025.69 1025.65 1025.77 1025.85 1026.01 1026.17 1026.33 1026.45 1026.57 1026.61 1026.61 1026.65 1026.65 1026.73 1026.65 1026.57 1026.45 1026.37 1026.29 1026.17 1026.01 1025.85 1025.69 1025.45 1025.13 1024.89 1024.69 1024.41 1024.05 1023.69 1023.49 1022.97 1022.49 1021.57 1021.13 1020.41
1021.81 1022.01 1022.21 1022.45 1022.69 1023.01 1023.33 1023.69 1023.97 1024.37 1024.69 1024.97 1025.21 1025.33 1025.49 1025.49 1025.49 1025.53 1025.69 1025.85 1025.93 1026.01 1026.09 1026.05 1025.97 1025.97 1025.97 1025.93 1025.85 1025.89 1026.01 1026.17 1026.29 1026.37 1026.45 1026.49 1026.57 1026.65 1026.69 1026.73 1026.77 1026.69 1026.53 1026.41 1026.33 1026.25 1026.13 1025.97 1025.81 1025.69 1025.49 1025.21 1024.97 1024.65 1024.33 1023.97 1023.61 1023.25 1022.93 1022.49 1021.73 1021.01 1020.49
1021.93 1022.17 1022.37 1022.61 1022.89 1023.17 1023.49 1023.81 1024.17 1024.49 1024.69 1025.05 1025.29 1025.37 1025.49 1025.53 1025.61 1025.77 1025.89 1026.01 1026.09 1026.21 1026.25 1026.25 1026.25 1026.21 1026.13 1026.01 1025.97 1026.05 1026.13 1026.21 1026.33 1026.37 1026.41 1026.49 1026.61 1026.69 1026.73 1026.73 1026.65 1026.61 1026.45 1026.33 1026.29 1026.21 1026.13 1025.97 1025.77 1025.61 1025.41 1025.13 1024.85 1024.61 1024.25 1023.85 1023.45 1023.05 1022.73 1022.33 1021.73 1021.09 1020.57
1022.05 1022.33 1022.53 1022.77 1023.05 1023.33 1023.69 1024.01 1024.25 1024.61 1024.81 1025.05 1025.25 1025.45 1025.57 1025.65 1025.81 1025.89 1026.09 1026.13 1026.25 1026.29 1026.33 1026.33 1026.33 1026.29 1026.21 1026.13 1026.09 1026.17 1026.29 1026.29 1026.33 1026.41 1026.45 1026.53 1026.69 1026.73 1026.73 1026.65 1026.53 1026.45 1026.37 1026.33 1026.25 1026.17 1026.01 1025.81 1025.69 1025.49 1025.29 1025.05 1024.77 1024.49 1024.13 1023.77 1023.33 1022.97 1022.57 1022.13 1021.61 1021.21 1020.69
1022.37 1022.61 1022.77 1022.97 1023.17 1023.49 1023.81 1024.09 1024.41 1024.69 1024.85 1025.13 1025.33 1025.49 1025.65 1025.73 1025.93 1026.01 1026.17 1026.29 1026.41 1026.37 1026.33 1026.33 1026.37 1026.37 1026.37 1026.37 1026.21 1026.25 1026.37 1026.41 1026.45 1026.53 1026.57 1026.69 1026.77 1026.77 1026.69 1026.61 1026.49 1026.33 1026.21 1026.09 1026.09 1026.01 1025.93 1025.77 1025.57 1025.29 1025.09 1024.93 1024.65 1024.37 1024.05 1023.69 1023.33 1022.97 1022.57 1022.13 1021.69 1021.13 1020.65
1022.61 1022.81 1022.97 1023.13 1023.37 1023.69 1023.97 1024.29 1024.53 1024.73 1024.97 1025.25 1025.45 1025.61 1025.73 1025.85 1026.01 1026.21 1026.33 1026.41 1026.41 1026.41 1026.37 1026.49 1026.53 1026.53 1026.41 1026.37 1026.37 1026.17 1026.33 1026.49 1026.53 1026.57 1026.73 1026.85 1026.85 1026.77 1026.73 1026.65 1026.45 1026.25 1026.01 1025.85 1025.77 1025.73 1025.73 1025.69 1025.53 1025.29 1024.89 1024.77 1024.49 1024.25 1024.01 1023.61 1023.33 1022.97 1022.57 1022.13 1021.57 1021.09 1020.69
1022.85 1022.97 1023.13 1023.29 1023.57 1023.81 1024.09 1024.37 1024.65 1024.93 1025.25 1025.49 1025.65 1025.81 1025.93 1026.05 1026.17 1026.29 1026.41 1026.49 1026.53 1026.53 1026.65 1026.65 1026.69 1026.69 1026.69 1026.45 1026.29 1026.21 1026.33 1026.53 1026.61 1026.65 1026.81 1026.89 1026.89 1026.85 1026.77 1026.65 1026.41 1026.17 1026.09 1025.89 1025.69 1025.53 1025.41 1025.25 1025.13 1025.05 1024.85 1024.61 1024.37 1024.13 1023.85 1023.57 1023.21 1022.89 1022.61 1022.13 1021.61 1021.17 1020.73
1023.01 1023.17 1023.37 1023.53 1023.73 1023.93 1024.25 1024.53 1024.85 1025.17 1025.45 1025.65 1025.81 1025.97 1026.13 1026.21 1026.37 1026.45 1026.53 1026.57 1026.61 1026.73 1026.81 1026.85 1026.85 1026.85 1026.69 1026.57 1026.45 1026.33 1026.29 1026.53 1026.65 1026.73 1026.85 1026.93 1026.89 1026.89 1026.85 1026.73 1026.53 1026.33 1026.09 1025.93 1025.69 1025.49 1025.29 1025.09 1024.81 1024.57 1024.33 1024.09 1023.89 1023.81 1023.69 1023.41 1023.13 1022.73 1022.53 1022.17 1021.65 1021.21 1020.77
1023.21 1023.41 1023.49 1023.65 1023.89 1024.13 1024.41 1024.73 1025.09 1025.37 1025.61 1025.81 1026.01 1026.17 1026.29 1026.41 1026.53 1026.61 1026.69 1026.73 1026.77 1026.89 1027.01 1027.09 1026.97 1026.53 1026.41 1026.37 1026.45 1026.49 1026.57 1026.61 1026.73 1026.69 1026.93 1026.97 1027.01 1026.97 1026.89 1026.69 1026.53 1026.37 1026.17 1025.89 1025.69 1025.57 1025.29 1024.97 1024.69 1024.41 1024.17 1023.89 1023.57 1023.25 1023.13 1023.21 1023.09 1022.73 1022.33 1022.09 1021.69 1021.13 1020.65
1023.41 1023.57 1023.69 1023.85 1024.05 1024.33 1024.57 1024.89 1025.21 1025.45 1025.65 1025.89 1026.13 1026.29 1026.49 1026.53 1026.65 1026.73 1026.73 1026.77 1026.97 1027.13 1027.17 1027.17 1026.89 1026.73 1026.61 1026.57 1026.57 1026.57 1026.65 1026.61 1026.77 1027.01 1027.05 1027.05 1027.01 1026.93 1026.85 1026.65 1026.49 1026.29 1026.17 1025.89 1025.69 1025.61 1025.45 1025.09 1024.69 1024.33 1024.05 1023.81 1023.45 1023.17 1022.93 1022.69 1022.49 1022.41 1022.17 1022.01 1021.65 1021.05 1020.45
1023.57 1023.73 1023.85 1024.01 1024.17 1024.45 1024.69 1025.01 1025.25 1025.45 1025.73 1026.01 1026.25 1026.49 1026.57 1026.65 1026.81 1026.89 1026.93 1027.01 1027.17 1027.25 1027.25 1027.33 1027.05 1026.89 1026.89 1026.85 1026.81 1026.77 1026.89 1026.97 1027.01 1027.13 1027.21 1027.17 1027.05 1026.93 1026.81 1026.69 1026.53 1026.25 1026.01 1025.93 1025.73 1025.61 1025.41 1025.13 1024.85 1024.49 1024.17 1023.89 1023.65 1023.25 1022.89 1022.57 1022.21 1021.89 1021.69 1021.57 1021.41 1021.09 1020.21
1023.65 1023.85 1023.93 1024.09 1024.29 1024.53 1024.81 1025.13 1025.33 1025.57 1025.81 1026.09 1026.29 1026.45 1026.65 1026.77 1026.89 1027.01 1027.09 1027.21 1027.21 1027.33 1027.49 1027.41 1027.09 1027.01 1027.05 1027.05 1027.05 1027.05 1027.13 1027.17 1027.21 1027.25 1027.25 1027.25 1027.17 1027.09 1026.85 1026.61 1026.49 1026.37 1026.09 1025.85 1025.61 1025.61 1025.53 1025.21 1024.93 1024.61 1024.33 1023.93 1023.65 1023.29 1022.93 1022.49 1022.09 1021.81 1021.57 1021.29 1021.13 1020.81 1020.21
1023.65 1023.85 1023.97 1024.17 1024.41 1024.65 1024.85 1025.01 1025.29 1025.57 1025.85 1026.17 1026.41 1026.61 1026.81 1026.85 1026.93 1027.05 1027.25 1027.29 1027.29 1027.41 1027.49 1027.33 1027.13 1027.09 1027.17 1027.21 1027.25 1027.29 1027.33 1027.33 1027.37 1027.37 1027.25 1027.17 1027.09 1026.97 1026.85 1026.69 1026.45 1026.29 1026.05 1025.85 1025.45 1025.33 1025.41 1025.21 1024.89 1024.65 1024.33 1024.01 1023.61 1023.25 1022.81 1022.29 1021.97 1021.65 1021.41 1021.13 1020.81 1020.45 1019.97
1023.65 1023.85 1024.05 1024.29 1024.53 1024.77 1024.89 1025.05 1025.29 1025.53 1025.85 1026.17 1026.41 1026.57 1026.69 1026.81 1027.05 1027.13 1027.29 1027.37 1027.41 1027.53 1027.49 1027.41 1027.33 1027.29 1027.29 1027.33 1027.33 1027.45 1027.49 1027.49 1027.53 1027.41 1027.37 1027.29 1027.05 1026.85 1026.69 1026.57 1026.41 1026.25 1026.01 1025.77 1025.49 1025.33 1025.37 1025.09 1024.89 1024.65 1024.41 1024.05 1023.69 1023.29 1022.73 1022.21 1021.85 1021.49 1021.09 1020.73 1020.33 1019.93 1019.49
1023.53 1023.81 1024.09 1024.37 1024.65 1024.93 1025.05 1025.17 1025.29 1025.49 1025.77 1026.09 1026.29 1026.45 1026.61 1026.89 1027.13 1027.21 1027.29 1027.41 1027.49 1027.53 1027.57 1027.57 1027.41 1027.37 1027.37 1027.41 1027.45 1027.49 1027.57 1027.49 1027.45 1027.41 1027.33 1027.25 1027.17 1026.93 1026.77 1026.41 1026.25 1026.21 1026.05 1025.77 1025.53 1025.33 1025.25 1025.09 1024.81 1024.65 1024.37 1024.09 1023.65 1023.21 1022.69 1022.29 1022.01 1021.49 1021.01 1020.61 1020.13 1019.69 1019.21
1023.45 1023.81 1024.13 1024.45 1024.69 1024.89 1025.01 1025.09 1025.29 1025.53 1025.73 1025.93 1026.13 1026.41 1026.57 1026.69 1027.17 1027.45 1027.41 1027.49 1027.53 1027.53 1027.61 1027.53 1027.41 1027.37 1027.37 1027.41 1027.49 1027.57 1027.57 1027.41 1027.17 1027.33 1027.25 1026.97 1026.89 1026.77 1026.53 1026.37 1026.25 1026.13 1026.01 1025.77 1025.49 1025.21 1024.97 1025.05 1024.73 1024.53 1024.37 1024.13 1023.65 1023.25 1022.77 1022.49 1022.13 1021.61 1021.09 1020.65 1020.13 1019.65 1019.13
1023.45 1023.77 1024.13 1024.45 1024.65 1024.77 1024.97 1025.21 1025.41 1025.53 1025.73 1025.89 1026.13 1026.25 1026.41 1026.65 1026.93 1027.33 1027.57 1027.57 1027.57 1027.57 1027.57 1027.57 1027.49 1027.45 1027.45 1027.49 1027.53 1027.53 1027.49 1027.13 1027.17 1027.21 1027.21 1027.09 1026.85 1026.65 1026.61 1026.49 1026.29 1026.05 1025.93 1025.69 1025.33 1025.09 1024.89 1024.81 1024.65 1024.37 1024.25 1024.01 1023.73 1023.17 1022.85 1022.53 1022.05 1021.73 1021.41 1020.97 1020.41 1019.81 1019.29
1023.37 1023.77 1024.05 1024.29 1024.45 1024.69 1024.97 1025.21 1025.41 1025.53 1025.69 1025.93 1026.13 1026.33 1026.45 1026.65 1026.93 1027.33 1027.65 1027.69 1027.65 1027.61 1027.53 1027.53 1027.65 1027.57 1027.53 1027.53 1027.53 1027.49 1027.49 1027.49 1027.53 1027.37 1027.13 1026.97 1027.01 1026.89 1026.73 1026.61 1026.41 1026.05 1025.89 1025.65 1025.29 1024.93 1024.81 1024.69 1024.45 1024.21 1024.21 1024.13 1023.77 1023.29 1022.89 1022.57 1022.13 1021.77 1021.49 1020.97 1020.49 1019.89 1019.33
1023.37 1023.69 1023.97 1024.21 1024.45 1024.73 1025.01 1025.21 1025.33 1025.45 1025.77 1026.01 1026.17 1026.41 1026.69 1026.85 1027.05 1027.37 1027.65 1027.77 1027.61 1027.53 1027.53 1027.57 1027.69 1027.73 1027.65 1027.61 1027.61 1027.57 1027.49 1027.53 1027.53 1027.25 1026.93 1026.89 1026.89 1026.81 1026.77 1026.77 1026.53 1026.13 1025.93 1025.61 1025.21 1024.93 1024.73 1024.69 1024.37 1024.21 1024.17 1023.93 1023.49 1023.09 1022.93 1022.69 1022.37 1021.93 1021.53 1021.09 1020.65 1020.09 1019.49
1023.37 1023.65 1023.89 1024.09 1024.33 1024.69 1024.97 1025.09 1025.25 1025.45 1025.69 1025.97 1026.21 1026.49 1026.73 1027.01 1027.25 1027.45 1027.65 1027.73 1027.69 1027.53 1027.57 1027.65 1027.69 1027.61 1027.61 1027.53 1027.53 1027.57 1027.57 1027.53 1027.41 1027.29 1027.13 1026.97 1027.01 1026.89 1026.81 1026.73 1026.49 1026.09 1025.89 1025.49 1025.13 1024.93 1024.81 1024.73 1024.45 1024.33 1024.17 1023.81 1023.49 1023.21 1023.01 1022.81 1022.45 1022.09 1021.69 1021.25 1020.81 1020.33 1019.73
1023.29 1023.53 1023.73 1023.93 1024.21 1024.57 1024.77 1024.89 1025.13 1025.37 1025.65 1025.89 1026.17 1026.37 1026.73 1027.05 1027.25 1027.41 1027.49 1027.53 1027.57 1027.53 1027.65 1027.73 1027.73 1027.57 1027.49 1027.45 1027.41 1027.37 1027.33 1027.33 1027.33 1027.25 1027.25 1027.13 1027.05 1027.01 1026.81 1026.69 1026.49 1026.21 1025.73 1025.33 1025.17 1025.01 1024.89 1024.73 1024.61 1024.37 1024.21 1023.85 1023.57 1023.37 1023.21 1023.01 1022.69 1022.33 1021.93 1021.49 1021.05 1020.57 1020.05
Thickness
5655 5655 5655 5655 5654 5654 5654 5653 5654 5654 5654 5655 5655 5655 5656 5657 5656 5654 5652 5650 5647 5644 5644 5643 5642 5641 5641 5639 5638 5635 5633 5630 5629 5626 5623 5621 5620 5619 5619 5619 5618 5618 5617 5615 5613 5612 5612 5616 5622 5623 5620 5617 5613 5611 5610 5608 5610 5611 5613 5614 5616 5618 5619
5655 5655 5655 5654 5652 5652 5650 5649 5650 5650 5650 5651 5651 5652 5652 5651 5650 5648 5646 5643 5641 5641 5640 5639 5638 5638 5636 5634 5632 5629 5627 5625 5623 5621 5618 5615 5614 5612 5612 5611 5609 5609 5607 5606 5604 5603 5602 5601 5605 5609 5611 5612 5609 5606 5603 5601 5601 5603 5605 5607 5608 5610 5611
5654 5654 5653 5651 5650 5650 5647 5645 5645 5645 5645 5646 5647 5648 5646 5645 5644 5641 5640 5639 5637 5637 5636 5635 5634 5633 5631 5628 5625 5623 5621 5619 5617 5616 5613 5611 5609 5608 5606 5604 5601 5600 5597 5596 5594 5593 5592 5591 5591 5592 5596 5598 5599 5599 5597 5594 5594 5594 5597 5599 5601 5603 5604
5652 5651 5650 5648 5646 5644 5642 5641 5641 5641 5642 5643 5643 5642 5640 5639 5638 5636 5635 5634 5633 5633 5632 5631 5629 5626 5624 5621 5619 5617 5615 5613 5611 5610 5608 5606 5604 5602 5600 5597 5594 5592 5589 5587 5585 5584 5583 5581 5581 5581 5583 5585 5588 5591 5591 5589 5588 5588 5589 5591 5592 5594 5595
5652 5650 5648 5645 5642 5640 5638 5637 5638 5638 5639 5639 5637 5636 5634 5633 5632 5631 5630 5629 5628 5627 5626 5625 5622 5620 5618 5615 5613 5611 5609 5608 5606 5604 5602 5600 5598 5596 5593 5590 5587 5584 5582 5578 5577 5575 5573 5573 5572 5571 5573 5577 5579 5581 5582 5582 5583 5583 5583 5583 5584 5585 5586
5650 5649 5647 5644 5640 5638 5636 5636 5636 5636 5635 5634 5632 5630 5629 5629 5628 5626 5625 5624 5622 5621 5620 5618 5616 5614 5612 5609 5608 5606 5604 5602 5600 5599 5596 5593 5591 5588 5584 5581 5579 5576 5574 5571 5570 5568 5566 5566 5565 5563 5564 5567 5568 5571 5574 5575 5575 5575 5576 5576 5576 5577 5578
5647 5646 5645 5642 5639 5637 5636 5635 5634 5634 5632 5629 5627 5626 5624 5623 5622 5620 5619 5617 5617 5616 5614 5612 5610 5608 5606 5604 5603 5601 5599 5596 5594 5592 5589 5586 5583 5579 5576 5573 5570 5568 5565 5564 5562 5561 5559 5558 5557 5556 5557 5558 5560 5563 5565 5566 5567 5567 5568 5568 5569 5570 5570
5645 5644 5642 5640 5638 5636 5634 5634 5632 5630 5629 5626 5624 5622 5620 5618 5616 5615 5614 5613 5611 5610 5609 5607 5604 5602 5601 5599 5597 5595 5593 5590 5588 5585 5581 5577 5573 5570 5568 5565 5562 5560 5558 5557 5555 5553 5552 5551 5550 5549 5549 5550 5552 5556 5557 5558 5558 5558 5560 5562 5562 5562 5563
5641 5641 5639 5637 5636 5634 5632 5631 5629 5626 5624 5622 5620 5617 5615 5614 5612 5610 5609 5608 5607 5605 5604 5601 5599 5598 5596 5593 5591 5589 5586 5583 5580 5577 5573 5569 5565 5562 5560 5557 5555 5552 5550 5549 5547 5546 5545 5544 5543 5543 5542 5541 5541 5544 5548 5550 5551 5551 5552 5554 5556 5556 5555
5637 5636 5635 5634 5632 5631 5630 5628 5626 5623 5620 5618 5616 5613 5611 5609 5607 5606 5604 5602 5601 5600 5598 5596 5594 5592 5590 5587 5585 5582 5579 5576 5573 5569 5565 5561 5557 5555 5552 5550 5547 5545 5543 5542 5540 5540 5539 5537 5536 5535 5535 5534 5532 5531 5532 5534 5540 5544 5544 5544 5546 5549 5549
5633 5632 5632 5631 5630 5628 5627 5625 5623 5620 5617 5614 5612 5609 5606 5604 5602 5601 5599 5598 5596 5594 5592 5590 5588 5586 5584 5581 5579 5576 5573 5570 5566 5561 5557 5554 5550 5548 5545 5542 5541 5538 5537 5535 5535 5533 5532 5531 5530 5528 5527 5527 5525 5523 5520 5520 5525 5532 5535 5535 5536 5540 5542
5629 5629 5629 5628 5627 5626 5625 5622 5619 5616 5613 5610 5607 5604 5601 5599 5597 5596 5594 5592 5590 5588 5586 5584 5582 5580 5579 5576 5573 5569 5566 5563 5559 5554 5550 5546 5544 5541 5539 5536 5534 5532 5531 5530 5529 5527 5526 5524 5523 5521 5520 5519 5518 5516 5515 5512 5513 5519 5523 5525 5527 5531 5534
5627 5626 5626 5625 5624 5623 5621 5618 5615 5611 5608 5605 5602 5599 5597 5594 5593 5591 5589 5586 5584 5582 5579 5578 5577 5575 5572 5570 5567 5563 5560 5556 5552 5547 5543 5540 5538 5535 5533 5530 5528 5526 5525 5524 5523 5521 5519 5518 5516 5514 5512 5511 5510 5508 5507 5505 5504 5509 5513 5515 5519 5523 5526
5624 5623 5622 5622 5620 5619 5616 5613 5610 5606 5603 5599 5597 5594 5592 5590 5588 5586 5583 5581 5578 5576 5574 5572 5571 5569 5567 5563 5560 5557 5553 5549 5545 5541 5537 5534 5532 5530 5527 5524 5522 5521 5519 5517 5516 5514 5512 5510 5509 5507 5505 5503 5502 5501 5500 5500 5498 5502 5506 5508 5511 5515 5518
5621 5619 5619 5617 5616 5614 5611 5608 5605 5601 5597 5594 5592 5590 5588 5585 5583 5581 5579 5576 5573 5572 5569 5568 5565 5563 5560 5557 5555 5551 5547 5543 5539 5536 5532 5528 5526 5524 5521 5519 5517 5515 5513 5511 5510 5507 5505 5503 5501 5500 5498 5497 5495 5495 5494 5494 5493 5494 5498 5502 5504 5507 5510
5616 5615 5614 5613 5611 5609 5606 5603 5600 5596 5592 5589 5588 5585 5582 5580 5578 5576 5574 5572 5569 5568 5565 5562 5560 5557 5554 5551 5549 5546 5542 5538 5534 5530 5527 5523 5520 5518 5516 5514 5512 5509 5507 5506 5504 5501 5499 5497 5496 5493 5492 5491 5489 5489 5487 5487 5486 5486 5488 5493 5497 5499 5503
5613 5611 5610 5608 5607 5604 5601 5598 5595 5592 5588 5585 5583 5580 5578 5576 5574 5572 5570 5568 5565 5562 5559 5557 5554 5551 5549 5546 5544 5540 5537 5534 5530 5526 5522 5518 5516 5514 5511 5509 5506 5504 5502 5500 5498 5496 5494 5492 5490 5487 5486 5485 5483 5482 5481 5480 5479 5479 5480 5483 5486 5489 5492
5609 5608 5606 5605 5602 5600 5597 5594 5591 5588 5585 5581 5578 5576 5574 5572 5571 5568 5566 5563 5560 5557 5554 5552 5549 5546 5544 5542 5539 5536 5532 5529 5526 5521 5518 5515 5512 5509 5507 5504 5502 5499 5498 5495 5493 5491 5489 5486 5484 5482 5480 5478 5477 5475 5474 5474 5473 5472 5472 5473 5477 5480 5482
5606 5604 5603 5601 5599 5596 5593 5590 5586 5584 5581 5578 5574 5573 5570 5569 5567 5564 5561 5558 5555 5552 5550 5547 5544 5542 5539 5537 5535 5531 5528 5525 5522 5518 5515 5512 5508 5505 5502 5500 5498 5495 5493 5491 5488 5485 5483 5481 5479 5477 5474 5473 5471 5470 5468 5468 5467 5467 5466 5466 5468 5471 5472
5603 5601 5599 5597 5595 5592 5589 5586 5583 5580 5577 5575 5571 5569 5567 5564 5562 5559 5556 5554 5550 5548 5545 5542 5540 5537 5535 5533 5530 5526 5523 5521 5518 5514 5512 5508 5504 5501 5498 5496 5493 5491 5489 5486 5483 5480 5478 5476 5474 5472 5470 5468 5466 5464 5463 5462 5461 5460 5460 5460 5461 5462 5464
5598 5596 5594 5593 5591 5588 5585 5582 5578 5576 5574 5571 5568 5565 5562 5560 5557 5554 5552 5549 5546 5543 5541 5538 5536 5533 5531 5528 5526 5523 5520 5517 5514 5510 5507 5504 5500 5496 5494 5491 5489 5487 5484 5481 5479 5476 5473 5471 5469 5467 5465 5462 5460 5459 5457 5456 5455 5454 5453 5452 5453 5454 5455
5593 5591 5590 5589 5586 5584 5581 5577 5574 5572 5570 5566 5563 5561 5558 5556 5553 5550 5547 5544 5541 5539 5537 5534 5531 5529 5526 5524 5522 5519 5515 5512 5510 5506 5502 5499 5495 5492 5489 5486 5484 5482 5479 5477 5474 5471 5468 5466 5463 5462 5460 5458 5455 5454 5452 5450 5449 5447 5446 5445 5445 5446 5446
5588 5587 5586 5584 5582 5580 5577 5573 5571 5568 5564 5562 5559 5556 5554 5551 5548 5545 5542 5539 5537 5534 5532 5529 5527 5525 5523 5520 5518 5515 5512 5509 5506 5502 5498 5494 5491 5487 5484 5481 5479 5477 5474 5472 5470 5467 5465 5462 5460 5457 5455 5453 5451 5449 5447 5445 5443 5441 5439 5438 5437 5436 5437
5584 5583 5582 5580 5578 5575 5572 5569 5566 5563 5559 5557 5554 5551 5549 5546 5543 5540 5538 5535 5532 5530 5526 5524 5522 5520 5519 5517 5514 5512 5509 5505 5501 5498 5494 5490 5486 5483 5480 5477 5475 5472 5470 5468 5466 5463 5461 5459 5457 5455 5453 5451 5448 5445 5443 5440 5438 5436 5433 5431 5430 5428 5428
5579 5578 5577 5576 5573 5570 5567 5564 5561 5558 5555 5552 5549 5546 5544 5541 5538 5535 5533 5531 5527 5525 5522 5519 5518 5517 5515 5514 5511 5508 5505 5501 5498 5494 5489 5485 5481 5478 5476 5473 5471 5469 5467 5464 5462 5460 5457 5456 5454 5453 5451 5449 5446 5443 5440 5436 5432 5430 5428 5425 5423 5422 5421
5574 5573 5572 5571 5569 5566 5563 5559 5557 5554 5551 5548 5545 5542 5539 5536 5533 5531 5529 5525 5522 5519 5517 5515 5514 5513 5512 5510 5507 5504 5501 5497 5493 5488 5484 5480 5477 5474 5472 5469 5467 5465 5463 5461 5459 5457 5455 5453 5451 5450 5448 5445 5443 5440 5437 5433 5429 5426 5422 5419 5417 5416 5416
5570 5569 5568 5567 5565 5562 5558 5555 5552 5550 5547 5543 5539 5537 5533 5531 5529 5526 5523 5520 5517 5514 5513 5511 5511 5509 5507 5506 5503 5499 5495 5492 5488 5483 5479 5477 5473 5471 5468 5466 5463 5462 5460 5458 5456 5454 5452 5450 5448 5446 5444 5441 5439 5436 5433 5430 5427 5424 5420 5416 5413 5410 5410
5566 5565 5563 5562 5560 5557 5554 5550 5548 5545 5542 5539 5535 5532 5529 5526 5524 5521 5518 5516 5513 5511 5508 5508 5507 5506 5503 5501 5498 5494 5490 5486 5483 5479 5475 5473 5470 5467 5464 5462 5460 5459 5457 5456 5454 5452 5449 5447 5445 5443 5440 5437 5434 5432 5429 5427 5423 5421 5417 5414 5409 5406 5405
5562 5560 5559 5557 5555 5552 5550 5547 5544 5540 5538 5534 5531 5528 5525 5522 5520 5517 5514 5512 5510 5507 5505 5505 5504 5501 5499 5496 5493 5490 5486 5482 5478 5475 5472 5469 5466 5464 5462 5459 5458 5456 5455 5454 5453 5450 5447 5445 5442 5439 5436 5434 5431 5428 5426 5424 5421 5418 5415 5411 5407 5404 5403
5558 5557 5555 5552 5550 5547 5546 5543 5540 5537 5534 5531 5527 5524 5522 5519 5516 5513 5510 5508 5506 5504 5502 5500 5499 5497 5494 5492 5489 5485 5482 5478 5475 5471 5468 5466 5464 5462 5460 5457 5455 5454 5453 5452 5450 5448 5445 5443 5440 5437 5433 5431 5429 5426 5425 5423 5420 5417 5413 5409 5405 5403 5403
5555 5553 5551 5548 5545 5543 5541 5539 5537 5534 5531 5527 5524 5521 5519 5516 5512 5510 5507 5505 5502 5501 5498 5496 5495 5493 5490 5487 5484 5481 5478 5475 5472 5468 5466 5463 5461 5459 5458 5457 5455 5452 5450 5449 5448 5446 5443 5441 5438 5435 5432 5429 5427 5424 5423 5421 5418 5415 5412 5408 5405 5403 5403
5552 5549 5546 5543 5542 5539 5538 5536 5533 5531 5528 5525 5522 5519 5516 5513 5509 5506 5503 5501 5499 5497 5494 5493 5491 5489 5486 5483 5481 5477 5475 5473 5470 5466 5463 5461 5460 5458 5456 5455 5453 5450 5448 5447 5446 5444 5442 5439 5435 5433 5430 5427 5424 5422 5421 5417 5415 5412 5408 5406 5404 5403 5402
5548 5546 5543 5540 5538 5536 5534 5532 5530 5527 5525 5522 5519 5516 5513 5510 5507 5503 5500 5498 5496 5493 5491 5489 5487 5485 5482 5480 5477 5474 5471 5469 5467 5464 5461 5459 5457 5456 5454 5452 5451 5449 5447 5445 5444 5442 5440 5437 5434 5432 5428 5425 5422 5420 5417 5414 5411 5408 5404 5401 5400 5400 5400
5545 5542 5540 5537 5535 5533 5531 5529 5526 5524 5521 5518 5515 5513 5510 5507 5504 5500 5496 5494 5492 5490 5488 5486 5483 5481 5479 5476 5474 5471 5468 5466 5463 5461 5459 5457 5455 5453 5451 5449 5448 5447 5446 5444 5442 5441 5438 5436 5434 5431 5427 5423 5420 5417 5415 5412 5409 5406 5402 5399 5398 5398 5399
5542 5539 5537 5535 5533 5530 5528 5525 5523 5521 5518 5515 5512 5509 5506 5503 5500 5496 5493 5490 5489 5487 5485 5483 5480 5478 5476 5474 5471 5469 5466 5463 5461 5459 5458 5456 5453 5451 5449 5447 5446 5445 5444 5442 5441 5440 5437 5435 5432 5430 5426 5422 5420 5417 5413 5410 5407 5405 5401 5398 5396 5396 5397
5539 5536 5534 5533 5530 5527 5525 5523 5520 5518 5515 5512 5509 5506 5502 5499 5496 5493 5490 5487 5486 5484 5482 5479 5477 5476 5474 5471 5469 5467 5464 5462 5460 5457 5456 5453 5451 5449 5447 5445 5444 5444 5442 5441 5440 5438 5436 5433 5431 5428 5425 5422 5419 5416 5413 5410 5407 5404 5401 5398 5395 5394 5394
5535 5534 5532 5530 5527 5524 5522 5520 5518 5515 5512 5509 5506 5504 5500 5496 5493 5490 5487 5485 5483 5481 5479 5477 5475 5473 5472 5470 5468 5465 5463 5460 5458 5456 5454 5452 5450 5447 5446 5444 5443 5443 5441 5440 5438 5436 5434 5431 5429 5427 5424 5421 5418 5416 5413 5409 5406 5403 5400 5397 5394 5392 5391